OM1PU-6 Weather Reports


time (UTC)temp
F
wind
direction
speed
knots
gust
knots
rain 1hr
in
rain 24hr
in
rain mn
in
humidity
%
barometer
mb
20260507020317 59 266 0.0 0.0 0.00 0.00 0.00 83 1021.2
20260507014818 59 233 0.0 0.0 0.00 0.00 0.00 82 1021.0
20260507013318 59 242 0.0 0.0 0.00 0.00 0.00 82 1021.0
20260507011818 59 98 0.0 3.5 0.00 0.00 0.00 81 1020.7
20260507010318 59 159 0.0 0.0 0.00 0.00 0.00 80 1020.8
20260507004818 59 285 0.0 3.5 0.00 0.00 0.00 80 1020.8
20260507003319 60 259 0.9 3.5 0.00 0.00 0.00 78 1020.4
20260507001817 61 283 0.0 0.0 0.00 0.00 0.00 76 1020.3
20260507000318 61 83 0.9 7.0 0.00 0.00 0.00 75 1020.2
20260506234818 62 112 1.7 7.0 0.00 0.00 0.00 74 1020.2
20260506233317 62 106 2.6 18.2 0.00 0.00 0.00 73 1020.1
20260506231817 63 178 0.9 7.0 0.00 0.00 0.00 73 1019.9
20260506230317 63 89 0.9 7.0 0.00 0.00 0.00 72 1019.8
20260506224817 63 239 3.5 28.7 0.00 0.00 0.00 72 1019.9
20260506223318 63 358 3.5 18.2 0.00 0.00 0.00 72 1019.6
20260506221817 64 177 0.9 10.4 0.00 0.00 0.00 72 1019.2
20260506220317 64 145 7.0 35.6 0.00 0.00 0.00 71 1019.0
20260506214818 64 175 3.5 18.2 0.00 0.00 0.00 71 1019.3
20260506213318 64 232 1.7 10.4 0.00 0.00 0.00 70 1019.0
20260506211817 65 217 4.3 21.7 0.00 0.00 0.00 70 1019.2
20260506210317 65 224 3.5 32.2 0.00 0.00 0.00 69 1019.3
20260506204818 65 275 2.6 10.4 0.00 0.00 0.00 69 1019.2
20260506203317 65 176 2.6 13.9 0.00 0.00 0.00 68 1019.0
20260506201818 66 175 2.6 13.9 0.00 0.00 0.00 66 1018.9
20260506200318 66 116 5.2 21.7 0.00 0.00 0.00 65 1019.1
20260506194817 67 252 2.6 18.2 0.00 0.00 0.00 65 1018.7
20260506193318 67 169 2.6 21.7 0.00 0.00 0.00 64 1018.6
20260506191818 67 185 1.7 10.4 0.00 0.00 0.00 64 1018.7
20260506190317 67 225 3.5 13.9 0.00 0.00 0.00 62 1018.5
20260506184818 68 203 4.3 21.7 0.00 0.00 0.00 61 1018.4
20260506183318 68 120 2.6 13.9 0.00 0.00 0.00 61 1018.3
20260506181818 69 203 3.5 21.7 0.00 0.00 0.00 60 1018.3
20260506180317 69 205 3.5 21.7 0.00 0.00 0.00 59 1018.1
20260506174817 70 187 0.9 7.0 0.00 0.00 0.00 59 1018.0
20260506173317 70 202 3.5 18.2 0.00 0.00 0.00 57 1017.9
20260506171817 71 197 2.6 13.9 0.00 0.00 0.00 55 1017.7
20260506170318 72 200 3.5 25.2 0.00 0.00 0.00 54 1018.1
20260506164818 73 159 4.3 28.7 0.00 0.00 0.00 53 1017.9
20260506163318 74 190 2.6 13.9 0.00 0.00 0.00 51 1018.3
20260506161817 74 272 0.9 10.4 0.00 0.00 0.00 50 1018.4
20260506160318 74 126 3.5 25.2 0.00 0.00 0.00 49 1018.0
20260506154817 75 128 6.1 32.2 0.00 0.00 0.00 48 1018.1
20260506153318 76 230 4.3 21.7 0.00 0.00 0.00 47 1018.3
20260506151818 76 250 1.7 13.9 0.00 0.00 0.00 47 1018.4
20260506150318 77 124 5.2 25.2 0.00 0.00 0.00 46 1018.7
20260506144817 75 158 4.3 25.2 0.00 0.00 0.00 49 1018.6
20260506143318 75 164 2.6 21.7 0.00 0.00 0.00 49 1018.6
20260506141817 75 222 1.7 10.4 0.00 0.00 0.00 49 1018.7
20260506140317 76 230 4.3 25.2 0.00 0.00 0.00 47 1018.9
20260506134818 76 138 3.5 25.2 0.00 0.00 0.00 45 1018.7
20260506133317 76 106 4.3 21.7 0.00 0.00 0.00 46 1018.7
20260506131818 76 329 2.6 10.4 0.00 0.00 0.00 45 1018.8
20260506130317 76 181 5.2 25.2 0.00 0.00 0.00 46 1019.2
20260506124817 77 132 2.6 10.4 0.00 0.00 0.00 46 1019.2
20260506123317 78 315 3.5 21.7 0.00 0.00 0.00 46 1019.5
20260506121818 77 237 1.7 13.9 0.00 0.00 0.00 47 1019.5
20260506120317 77 90 3.5 18.2 0.00 0.00 0.00 47 1019.5
20260506114817 77 103 3.5 21.7 0.00 0.00 0.00 46 1019.7
20260506113318 76 122 3.5 18.2 0.00 0.00 0.00 50 1019.8
20260506111818 76 130 6.1 28.7 0.00 0.00 0.00 49 1020.0
20260506110317 75 255 4.3 25.2 0.00 0.00 0.00 52 1020.3
20260506104817 75 156 2.6 18.2 0.00 0.00 0.00 53 1020.5
20260506103318 75 176 0.9 7.0 0.00 0.00 0.00 56 1020.7
20260506101818 73 117 4.3 18.2 0.00 0.00 0.00 56 1020.8
20260506100317 73 108 2.6 13.9 0.00 0.00 0.00 57 1020.9
20260506094818 72 182 1.7 7.0 0.00 0.00 0.00 61 1021.1
20260506093318 72 156 2.6 13.9 0.00 0.00 0.00 60 1021.1
20260506091817 73 168 0.9 7.0 0.00 0.00 0.00 59 1021.0
20260506090317 71 210 2.6 13.9 0.00 0.00 0.00 60 1021.0
20260506084817 72 269 0.0 0.0 0.00 0.00 0.00 58 1021.2
20260506083317 72 218 0.0 0.0 0.00 0.00 0.00 60 1021.2
20260506081817 74 274 0.0 0.0 0.00 0.00 0.00 57 1021.0
20260506080318 71 273 0.0 0.0 0.00 0.00 0.00 59 1021.1
20260506073318 68 258 0.9 3.5 0.00 0.00 0.00 63 1020.8
20260506071817 68 292 0.0 0.0 0.00 0.00 0.00 62 1021.2
20260506070318 67 246 0.0 0.0 0.00 0.00 0.00 67 1021.3
20260506061817 61 183 0.0 3.5 0.00 0.00 0.00 77 1021.4
20260506060317 60 247 0.0 0.0 0.00 0.00 0.00 80 1021.2
20260506050318 58 215 1.7 10.4 0.00 0.00 0.00 82 1021.0
20260506044817 57 278 0.0 0.0 0.00 0.00 0.00 84 1020.6
20260506043317 56 266 0.0 0.0 0.00 0.00 0.00 84 1020.7
20260506041817 56 278 0.0 0.0 0.00 0.00 0.00 85 1020.5
20260506040318 55 252 0.0 0.0 0.00 0.00 0.00 86 1020.5
20260506034818 55 275 0.0 0.0 0.00 0.00 0.00 86 1020.6
20260506033318 56 239 0.0 0.0 0.00 0.00 0.00 85 1020.4
20260506031817 56 133 0.0 0.0 0.00 0.00 0.00 85 1020.2
20260506030317 56 263 0.0 3.5 0.00 0.00 0.00 84 1020.3
20260506024817 56 184 0.0 0.0 0.00 0.00 0.00 83 1020.4
20260506023318 56 181 0.9 3.5 0.00 0.00 0.00 83 1020.0
20260506021817 56 228 0.0 0.0 0.00 0.00 0.00 83 1020.1